Location: Melque
(41.0517°N, 4.4694°W)
Time: 16:31:24
(UTC+00:00)

Cosmos 1607 - Visible Passes

Search period start: 14 March 2026 00:00
Search period end: 24 March 2026 00:00
Orbit: 922 x 980 km, 65.0° (Epoch: 13 March)

Date Brightness Start Highest point End Pass type
(mag) Time Alt. Az. Time Alt. Az. Time Alt. Az.
14 Mar 4.0 19:29:17 10° NNW 19:35:40 90° WSW 19:42:04 10° SSE visible
14 Mar 6.4 21:18:44 10° WNW 21:22:02 15° WSW 21:25:20 10° SW visible
15 Mar 4.7 19:47:25 10° NW 19:53:34 54° WSW 19:59:45 10° SSE visible
16 Mar 5.6 20:05:50 10° NW 20:11:20 32° WSW 20:16:51 10° S visible
17 Mar 6.4 20:24:51 10° WNW 20:28:57 18° WSW 20:33:04 10° SSW visible
18 Mar 4.5 18:54:07 10° NW 19:00:23 65° WSW 19:06:41 10° SSE visible
19 Mar 5.5 19:12:25 10° NW 19:18:12 38° WSW 19:24:00 10° S visible
20 Mar 6.4 19:31:10 10° WNW 19:35:52 22° WSW 19:40:35 10° SSW visible
21 Mar 6.9 19:51:19 10° W 19:53:23 12° WSW 19:55:28 10° WSW visible
